PBO Station Position Time Series. Reference Frame : NAM14
Format Version,1.1.0
4-character ID,PGC5
Station name,PGC5
Begin Date, 2000-06-15
End Date, 2019-10-07
Release Date, 2019-10-08
Reference position, 48.6485326382 North Latitude, -123.4511290162 East Longitude, 3.58382 meters elevation,
Date, North (mm), East (mm), Vertical (mm), North Std. Deviation (mm), East Std. Deviation (mm),              Vertical Std. Deviation (mm), Quality,
2000-06-15,0.00, 0.00, 0.00, 2.41, 1.82, 7.88, repro,
2000-06-16,-1.40, 1.25, -0.99, 2.30, 1.69, 7.39, repro,
2000-06-17,-0.69, 1.29, 2.88, 2.29, 1.67, 7.36, repro,
2000-06-18,-2.28, 1.89, 8.76, 2.33, 1.68, 7.41, repro,
2000-06-19,0.99, 1.35, 12.09, 2.36, 1.69, 7.48, repro,
2000-06-20,-2.14, 1.45, 2.70, 2.29, 1.68, 7.38, repro,
2000-06-21,-0.23, 1.77, -0.77, 2.35, 1.73, 7.50, repro,
2000-06-22,1.69, 0.14, -2.78, 2.36, 1.73, 7.59, repro,
2000-06-23,0.55, 1.42, -11.43, 2.45, 1.72, 7.66, repro,
2000-06-24,1.13, 2.41, -1.46, 2.31, 1.67, 7.36, repro,
2000-06-26,0.72, 2.05, -5.81, 2.44, 1.71, 7.60, repro,
2000-06-27,-0.07, 0.03, -14.12, 2.49, 1.72, 7.76, repro,
2000-06-28,-0.04, 0.85, -6.54, 2.43, 1.70, 7.66, repro,
2000-06-29,-0.19, 2.27, -2.34, 2.38, 1.70, 7.55, repro,
2000-06-30,0.66, 2.11, -5.52, 2.36, 1.70, 7.53, repro,
2000-07-01,1.07, 0.98, -2.41, 2.35, 1.69, 7.47, repro,
2000-07-02,0.11, 0.28, 1.94, 2.44, 1.69, 7.55, repro,
2000-07-03,-0.25, 0.33, 4.04, 2.38, 1.69, 7.55, repro,
2000-07-04,-0.74, 1.79, -4.29, 2.38, 1.70, 7.58, repro,
2000-07-05,1.66, 0.70, -7.86, 2.35, 1.68, 7.47, repro,
2000-07-06,0.46, 1.18, -1.28, 2.35, 1.68, 7.49, repro,
2000-07-07,-0.89, 0.83, -3.09, 2.36, 1.68, 7.45, repro,
2000-07-08,0.47, 0.52, -1.54, 2.36, 1.70, 7.46, repro,
2000-07-09,-1.15, 1.15, -5.84, 2.48, 1.72, 7.65, repro,
2000-07-10,0.27, 1.99, -1.10, 2.43, 1.71, 7.61, repro,
2000-07-11,-2.54, 1.34, 9.25, 2.38, 1.71, 7.54, repro,
2000-07-12,-1.30, 1.24, -0.77, 2.40, 1.70, 7.58, repro,
2000-07-14,-1.98, 2.14, 5.48, 2.44, 1.71, 7.61, repro,
2000-07-15,0.15, 1.55, -2.32, 2.48, 1.81, 7.86, repro,
2000-07-16,-0.01, 1.43, -0.43, 2.39, 1.72, 7.54, repro,
2000-07-17,0.70, 1.25, -3.78, 2.37, 1.69, 7.47, repro,
2000-07-18,-1.13, 1.70, -5.71, 2.39, 1.70, 7.50, repro,
2000-07-19,-1.08, 2.18, -3.28, 2.52, 1.77, 7.89, repro,
2000-07-20,-3.10, 1.35, 5.14, 2.36, 1.70, 7.48, repro,
2000-07-21,-0.73, 0.56, 6.19, 2.36, 1.70, 7.51, repro,
2000-07-22,-2.10, 0.56, 0.86, 2.52, 1.77, 7.91, repro,
2000-07-23,-2.01, 1.67, -9.99, 2.46, 1.73, 7.72, repro,
2000-07-24,-1.38, 2.29, 0.15, 2.38, 1.71, 7.51, repro,
2000-07-25,-3.92, 2.78, 6.84, 2.46, 1.73, 7.62, repro,
2000-07-26,-1.47, 1.01, 7.72, 2.44, 1.74, 7.64, repro,
2000-07-27,-2.33, 1.88, 7.27, 2.51, 1.73, 7.75, repro,
2000-07-28,1.31, 1.97, -5.85, 2.61, 1.80, 8.12, repro,
2000-07-29,-2.76, 3.29, -1.30, 2.59, 1.77, 7.98, repro,
2000-07-30,0.40, 1.63, 2.22, 2.44, 1.72, 7.60, repro,
2000-07-31,-2.33, 1.22, 13.18, 2.44, 1.72, 7.64, repro,
2000-08-01,-2.68, 1.74, -1.56, 2.59, 1.83, 8.20, repro,
2000-08-02,-0.99, 0.54, 1.21, 2.52, 1.77, 7.94, repro,
2000-08-03,-0.78, 1.78, 1.34, 2.49, 1.74, 7.76, repro,
2000-08-04,-1.44, 2.00, 1.22, 2.58, 1.77, 8.00, repro,
2000-08-05,0.47, 0.97, 3.02, 2.51, 1.76, 7.92, repro,
2000-08-06,-2.54, 2.49, 6.31, 2.59, 1.78, 8.06, repro,
2000-08-07,-0.95, 1.56, 9.83, 2.51, 1.74, 7.77, repro,
2000-08-08,-3.11, 1.10, 5.53, 2.42, 1.71, 7.54, repro,
2000-08-09,-0.72, 2.63, 3.77, 2.60, 1.83, 8.29, repro,
2000-08-10,-1.31, 2.12, -4.99, 2.71, 1.86, 8.45, repro,
2000-08-11,0.85, 3.48, 4.03, 2.50, 1.80, 7.95, repro,
2000-08-12,-2.42, 1.67, 3.59, 2.66, 1.87, 8.42, repro,
2000-08-13,0.18, 0.79, 0.74, 2.61, 1.76, 7.82, repro,
2000-08-14,-1.56, 1.42, 1.34, 2.51, 1.74, 7.81, repro,
2000-08-15,-2.66, 3.03, 2.62, 2.54, 1.74, 7.72, repro,
2000-08-16,0.61, 2.98, -5.72, 2.55, 1.73, 7.79, repro,
2000-08-17,-1.34, 2.98, -1.65, 2.60, 1.77, 7.89, repro,
2000-08-18,-2.71, 2.02, 3.85, 2.69, 1.84, 8.38, repro,
2000-08-19,-0.65, 4.59, 21.09, 2.53, 1.74, 7.69, repro,
2000-08-20,-1.23, 1.92, 2.98, 2.59, 1.78, 7.91, repro,
2000-08-21,-0.23, 2.53, -0.98, 2.53, 1.73, 7.68, repro,
2000-08-22,-2.05, 2.48, 5.04, 2.60, 1.77, 7.85, repro,
2000-08-23,-0.82, 1.86, 6.12, 2.44, 1.72, 7.61, repro,
2000-08-24,-4.40, -0.50, 2.56, 2.79, 1.86, 8.30, repro,
2000-08-25,-1.60, 3.33, 2.09, 2.64, 1.80, 8.14, repro,
2000-08-26,1.82, 2.28, -2.62, 2.68, 1.81, 8.18, repro,
2000-08-27,-1.22, 1.31, 3.38, 2.61, 1.81, 8.17, repro,
2000-08-28,0.20, 2.45, 1.61, 2.63, 1.79, 8.11, repro,
2000-08-29,-4.19, 2.55, 1.44, 2.54, 1.78, 7.99, repro,
2000-08-30,0.10, 1.94, -8.24, 2.61, 1.78, 8.03, repro,
2000-08-31,-2.56, 1.54, 2.81, 2.53, 1.75, 7.79, repro,
2000-09-01,-1.43, 1.62, -0.11, 2.63, 1.77, 7.89, repro,
2000-09-02,-1.74, 2.25, -0.71, 2.66, 1.79, 8.01, repro,
2000-09-03,-1.91, 3.71, -0.94, 2.47, 1.74, 7.67, repro,
2000-09-04,-1.96, 2.40, 1.75, 2.68, 1.84, 7.98, repro,
2000-09-05,-4.09, 1.48, -6.65, 2.71, 1.85, 8.08, repro,
2000-09-06,-0.32, 3.55, -0.40, 2.61, 1.77, 7.85, repro,
2000-09-07,-2.13, 1.04, -1.76, 2.60, 1.82, 7.91, repro,
2000-09-08,-0.01, 1.48, 26.23, 2.65, 1.79, 8.00, repro,
2000-09-09,-3.45, 3.37, 4.41, 2.69, 1.83, 8.18, repro,
2000-09-10,-1.08, 4.47, 2.64, 2.64, 1.81, 8.05, repro,
2000-09-11,-5.18, 3.22, -7.05, 2.67, 1.82, 7.98, repro,
2000-09-12,-2.63, 3.35, -6.32, 2.65, 1.82, 7.99, repro,
2000-09-13,-3.33, 2.94, -9.04, 2.70, 1.83, 8.13, repro,
2000-09-14,-1.90, 5.23, -7.20, 2.83, 1.89, 8.39, repro,
2000-09-15,-5.13, 3.95, 0.98, 2.63, 1.83, 7.91, repro,
2000-09-16,-0.64, 2.96, -5.39, 2.50, 1.76, 7.72, repro,
2000-09-17,-0.25, 3.81, -1.67, 2.77, 1.91, 8.34, repro,
2000-09-18,-3.25, 0.46, -14.15, 2.60, 1.81, 8.09, repro,
2000-09-19,-3.66, 2.81, -9.04, 2.68, 1.79, 8.00, repro,
2000-09-20,-2.14, 2.78, -7.54, 2.66, 1.82, 8.11, repro,
2000-09-21,-2.03, 2.70, -3.03, 2.84, 1.95, 8.53, repro,
2000-09-22,-0.36, 3.89, -6.58, 2.99, 2.02, 8.95, repro,
2000-09-23,-0.64, 4.46, -5.31, 2.64, 1.77, 7.87, repro,
2000-09-24,-1.87, 5.38, -4.20, 2.87, 1.90, 8.32, repro,
2000-09-25,-0.93, 3.13, -12.64, 2.76, 1.80, 8.11, repro,
2000-09-26,-0.87, 3.20, -4.95, 2.60, 1.79, 7.90, repro,
2000-09-27,1.07, 4.21, -9.76, 2.72, 1.84, 8.26, repro,
2000-09-28,-0.87, 3.32, -7.86, 2.64, 1.86, 8.42, repro,
2000-09-29,-0.93, 3.04, 3.52, 2.68, 1.82, 8.18, repro,
2000-09-30,-0.96, 2.87, 9.35, 2.57, 1.76, 7.83, repro,
2000-10-01,-1.35, 4.45, -2.17, 2.58, 1.79, 7.84, repro,
2000-10-02,-1.32, 4.77, -3.67, 2.61, 1.81, 7.92, repro,
2000-10-03,-1.31, 3.55, -7.20, 2.63, 1.81, 7.97, repro,
2000-10-04,-0.26, 3.20, -0.59, 2.63, 1.77, 8.04, repro,
2000-10-05,0.90, 3.79, -0.82, 2.89, 2.01, 8.83, repro,
2000-10-06,-0.76, 4.32, -3.78, 2.49, 1.72, 7.63, repro,
2000-10-07,-1.37, 3.90, 1.23, 2.51, 1.73, 7.71, repro,
2000-10-08,-1.46, 3.48, 4.80, 2.54, 1.76, 7.85, repro,
2000-10-09,0.17, 5.94, 5.71, 2.54, 1.74, 7.78, repro,
2000-10-10,-0.59, 4.83, 5.94, 2.51, 1.73, 7.72, repro,
2000-10-11,1.26, 3.55, -4.70, 2.53, 1.73, 7.73, repro,
2000-10-12,0.40, 3.02, -3.48, 2.59, 1.80, 7.93, repro,
2000-10-13,-1.28, 4.10, -1.16, 2.64, 1.83, 8.16, repro,
2000-10-14,-2.62, 3.52, 4.88, 2.82, 1.86, 8.40, repro,
2000-10-15,0.24, 4.00, 1.00, 2.75, 1.82, 8.18, repro,
2000-10-16,-1.43, 4.66, -0.84, 2.53, 1.72, 7.73, repro,
2000-10-17,-2.61, 3.97, 4.31, 2.63, 1.78, 8.04, repro,
2000-10-18,-0.05, 7.41, -0.99, 2.56, 1.78, 7.92, repro,
2000-10-19,-1.57, 5.38, 2.19, 2.74, 1.83, 8.26, repro,
2000-10-20,-0.86, 4.93, 9.63, 2.67, 1.77, 7.97, repro,
2000-10-21,-1.95, 4.15, 0.43, 2.65, 1.77, 7.90, repro,
2000-10-22,-2.63, 5.35, 0.82, 2.69, 1.77, 7.97, repro,
2000-10-23,-0.95, 5.47, 0.86, 2.66, 1.76, 7.88, repro,
2000-10-24,-3.19, 5.23, 1.30, 2.54, 1.74, 7.74, repro,
2000-10-25,0.33, 3.72, -0.74, 2.60, 1.76, 7.90, repro,
2000-10-26,-1.34, 4.88, 1.75, 2.64, 1.76, 7.82, repro,
2000-10-27,-3.00, 3.74, 5.29, 2.65, 1.80, 8.00, repro,
2000-10-28,-2.86, 2.62, 5.53, 2.71, 1.77, 8.05, repro,
2000-10-29,-2.09, 5.76, 2.40, 2.66, 1.80, 8.16, repro,
2000-10-30,-2.18, 5.26, 2.05, 2.63, 1.81, 7.91, repro,
2000-10-31,-1.33, 5.25, -2.29, 2.66, 1.81, 8.01, repro,
2000-11-01,0.24, 3.53, -1.85, 2.58, 1.77, 7.99, repro,
2000-11-02,-1.08, 4.99, 1.46, 2.56, 1.76, 7.90, repro,
2000-11-03,-3.48, 6.82, -0.42, 2.66, 1.84, 8.16, repro,
2000-11-04,-1.75, 5.82, 5.29, 2.63, 1.77, 7.93, repro,
2000-11-05,-0.67, 5.54, -6.41, 2.55, 1.74, 7.80, repro,
2000-11-06,-0.44, 5.47, -10.46, 2.77, 1.80, 8.34, repro,
2000-11-07,-0.74, 4.15, -10.75, 2.64, 1.78, 7.95, repro,
2000-11-08,-1.76, 4.93, -5.80, 2.60, 1.77, 7.92, repro,
2000-11-09,2.03, 4.36, -2.47, 2.73, 1.78, 8.03, repro,
2000-11-10,0.78, 5.94, -1.29, 2.97, 1.90, 8.63, repro,
2000-11-11,1.29, 5.90, -8.32, 2.71, 1.78, 8.13, repro,
2000-11-12,1.20, 5.67, 0.98, 2.56, 1.73, 7.72, repro,
2000-11-13,-2.08, 4.89, -0.60, 2.63, 1.80, 7.91, repro,
2000-11-14,-2.46, 5.71, -1.83, 2.72, 1.91, 8.35, repro,
2000-11-15,-1.42, 4.77, -9.82, 2.59, 1.76, 7.87, repro,
2000-11-16,-2.15, 5.60, -8.63, 2.74, 1.81, 7.94, repro,
2000-11-17,0.84, 5.79, -1.51, 2.53, 1.72, 7.65, repro,
2000-11-18,-0.89, 5.68, -11.12, 2.72, 1.85, 8.28, repro,
2000-11-19,1.35, 5.37, -4.58, 2.76, 1.88, 8.43, repro,
2000-11-20,0.15, 5.74, -6.38, 2.70, 1.80, 8.09, repro,
2000-11-21,-1.17, 5.83, -7.00, 2.77, 1.86, 8.31, repro,
2000-11-22,1.63, 5.06, -12.64, 2.65, 1.81, 8.09, repro,
2000-11-23,2.11, 5.69, -1.97, 2.70, 1.81, 8.14, repro,
2000-11-24,1.58, 5.44, 0.24, 2.62, 1.79, 7.98, repro,
2000-11-25,-3.30, 5.26, -4.07, 2.75, 1.87, 8.44, repro,
2000-11-26,-1.30, 4.40, -0.02, 2.69, 1.84, 8.31, repro,
2000-11-27,-0.55, 5.99, -8.24, 2.65, 1.80, 7.99, repro,
2000-11-28,0.84, 5.75, -11.22, 2.77, 1.86, 8.40, repro,
2000-11-29,0.70, 4.12, -3.92, 2.76, 1.84, 8.46, repro,
2000-11-30,-0.44, 6.05, 0.08, 2.72, 1.84, 8.20, repro,
2000-12-01,2.24, 5.78, -8.09, 2.88, 1.95, 8.91, repro,
2000-12-02,1.36, 6.24, 2.19, 2.79, 1.88, 8.42, repro,
2000-12-03,2.68, 7.41, -17.76, 3.03, 2.03, 9.42, repro,
2000-12-04,0.44, 5.24, -16.98, 3.18, 2.12, 9.72, repro,
2000-12-05,0.04, 4.39, -19.49, 2.78, 1.85, 8.42, repro,
2000-12-06,-0.94, 3.98, -19.09, 2.68, 1.78, 8.00, repro,
2000-12-07,5.02, 3.81, -25.27, 2.72, 1.83, 8.17, repro,
2000-12-08,0.91, 4.16, -17.71, 2.88, 2.01, 8.95, repro,
2000-12-09,4.78, 3.10, -31.18, 2.76, 1.80, 8.16, repro,
2000-12-10,-0.57, 3.11, -21.50, 2.97, 2.04, 9.45, repro,
2000-12-11,0.19, 2.06, -8.34, 2.70, 1.82, 8.31, repro,
2000-12-12,-1.82, 2.60, 1.77, 2.71, 1.80, 8.15, repro,
2000-12-13,-1.61, 2.14, -9.66, 2.67, 1.74, 7.96, repro,
2000-12-14,-0.63, 2.64, -14.71, 2.56, 1.70, 7.70, repro,
2000-12-15,3.53, 2.32, -16.92, 2.60, 1.73, 7.88, repro,
2000-12-16,-4.09, 0.93, -24.57, 2.60, 1.74, 7.82, repro,
2000-12-17,1.47, 2.70, -22.54, 2.66, 1.78, 8.01, repro,
2000-12-18,-0.71, 1.39, -18.77, 2.71, 1.80, 8.12, repro,
2000-12-19,-0.16, 1.62, -16.85, 2.84, 1.83, 8.47, repro,
2000-12-20,-1.91, 1.28, -16.35, 2.64, 1.77, 8.01, repro,
2000-12-21,0.30, 2.13, -18.71, 2.68, 1.77, 8.03, repro,
2000-12-22,0.53, 0.93, -22.17, 2.67, 1.76, 7.97, repro,
2000-12-23,2.13, 0.68, -27.82, 2.76, 1.81, 8.33, repro,
2000-12-24,3.13, 1.63, -29.90, 2.61, 1.74, 7.84, repro,
2000-12-25,2.71, 0.51, -25.19, 2.57, 1.72, 7.71, repro,
2000-12-26,1.95, 0.65, -21.61, 2.63, 1.73, 7.83, repro,
2000-12-27,3.33, 0.12, -31.96, 2.75, 1.76, 8.10, repro,
2000-12-28,1.97, 2.24, -28.18, 2.68, 1.77, 7.99, repro,
2000-12-29,-1.27, 0.22, -27.55, 2.61, 1.72, 7.77, repro,
2000-12-30,-1.26, 0.21, -23.81, 2.69, 1.78, 8.05, repro,
2000-12-31,2.98, 1.53, -20.68, 2.71, 1.79, 8.18, repro,
2001-01-01,-0.35, 0.44, -19.26, 2.73, 1.84, 8.32, repro,
2001-01-02,-2.72, 1.76, -26.82, 2.85, 1.85, 8.53, repro,
2001-01-03,-2.65, 1.68, -12.32, 2.62, 1.79, 8.07, repro,
2001-01-04,-1.90, 0.61, -24.50, 2.70, 1.81, 8.21, repro,
2001-01-05,-2.89, -1.49, -2.42, 2.74, 1.83, 8.23, repro,
2001-01-06,-3.75, 0.46, -9.08, 2.80, 1.85, 8.38, repro,
2001-01-07,-2.70, 0.82, -7.48, 2.68, 1.75, 7.98, repro,
2001-01-08,-3.82, 0.94, -1.07, 2.72, 1.79, 8.20, repro,
2001-01-09,-4.81, 1.30, 3.60, 2.66, 1.74, 7.99, repro,
2001-01-10,-3.04, 1.41, 2.18, 2.59, 1.77, 8.02, repro,
2001-01-11,-1.45, -0.30, -9.71, 2.62, 1.75, 7.92, repro,
2001-01-12,-3.78, 1.01, -10.53, 2.56, 1.71, 7.75, repro,
2001-01-13,-2.34, 1.03, -11.67, 2.71, 1.78, 8.13, repro,
2001-01-14,-0.26, 0.21, -16.15, 2.82, 1.82, 8.36, repro,
2001-01-15,-1.52, 2.92, -22.70, 2.83, 1.83, 8.48, repro,
2001-01-16,-0.48, 0.55, -16.98, 2.76, 1.86, 8.49, repro,
2001-01-17,-3.77, 0.26, -11.99, 2.71, 1.77, 8.04, repro,
2001-01-18,-1.69, 0.22, -14.81, 2.71, 1.82, 8.30, repro,
2001-01-19,-0.20, -0.11, -11.89, 2.66, 1.82, 8.23, repro,
2001-01-20,-2.22, 1.09, -10.96, 2.59, 1.73, 7.86, repro,
2001-01-21,0.98, 1.37, -12.61, 2.57, 1.73, 7.79, repro,
2001-01-22,-1.63, 0.97, -12.06, 2.56, 1.69, 7.65, repro,
2001-01-23,-0.81, 0.39, -20.72, 2.71, 1.87, 8.40, repro,
2001-01-24,-2.16, 1.14, -10.24, 2.73, 1.84, 8.34, repro,
2001-01-25,1.53, 0.76, -11.34, 2.75, 1.85, 8.42, repro,
2001-01-26,-0.09, 2.64, -22.71, 2.84, 1.91, 8.62, repro,
2001-01-27,-3.18, 1.13, -19.35, 2.83, 1.86, 8.56, repro,
2001-01-28,-2.30, 0.98, 0.77, 2.70, 1.82, 8.24, repro,
2001-01-29,-0.31, 0.72, -8.53, 2.59, 1.75, 7.81, repro,
2001-01-30,-0.23, -0.03, -19.72, 2.60, 1.74, 7.81, repro,
2001-01-31,-3.37, 2.41, -14.12, 2.68, 1.85, 8.27, repro,
2001-02-01,-1.35, 1.43, -14.92, 2.65, 1.76, 8.02, repro,
2001-02-02,-2.02, 0.11, -6.18, 2.62, 1.75, 7.95, repro,
2001-02-03,-1.16, 1.59, -15.36, 2.61, 1.74, 7.83, repro,
2001-02-04,-3.13, -0.52, -7.89, 2.64, 1.80, 8.10, repro,
2001-02-05,0.71, 3.10, -21.00, 2.60, 1.75, 7.84, repro,
2001-02-06,-1.47, 0.41, -22.25, 2.61, 1.76, 7.93, repro,
2001-02-07,-0.61, 0.54, -18.92, 2.62, 1.75, 7.92, repro,
2001-02-08,-0.62, -1.67, -19.97, 2.65, 1.80, 8.13, repro,
2001-02-09,-0.22, 1.18, -12.33, 2.64, 1.80, 8.14, repro,
2001-02-10,-1.10, 0.50, -13.86, 2.61, 1.75, 7.89, repro,
2001-02-11,-3.02, 0.60, -9.61, 2.66, 1.81, 8.16, repro,
2001-02-12,-2.33, 0.13, -16.73, 2.76, 1.83, 8.21, repro,
2001-02-13,-0.98, -0.28, -7.70, 2.62, 1.74, 7.92, repro,
2001-02-14,-0.09, 1.06, -22.13, 2.62, 1.76, 8.00, repro,
2001-02-15,3.01, -1.22, -24.99, 2.64, 1.76, 7.98, repro,
2001-02-16,-1.44, 0.17, -18.82, 2.73, 1.85, 8.29, repro,
2001-02-17,-1.41, 1.33, -16.79, 2.70, 1.79, 8.02, repro,
2001-02-18,1.64, 0.36, -12.53, 2.68, 1.81, 8.16, repro,
2001-02-19,-0.18, 0.80, -18.56, 2.72, 1.82, 8.18, repro,
2001-02-20,-1.39, 0.73, -16.91, 2.91, 1.93, 8.51, repro,
2001-02-21,-2.17, 0.71, -22.16, 2.69, 1.83, 8.23, repro,
2001-02-22,-1.27, 0.41, -20.78, 2.66, 1.82, 8.17, repro,
2001-02-23,-1.96, 1.49, -19.57, 2.68, 1.82, 8.15, repro,
2001-02-24,0.49, 1.42, -10.87, 2.77, 1.89, 8.43, repro,
2001-02-25,-0.43, 1.76, -20.89, 2.79, 1.90, 8.58, repro,
2001-02-26,-0.44, 1.86, -17.09, 2.72, 1.96, 8.74, repro,
2001-02-27,-1.05, 2.90, -22.50, 2.74, 1.87, 8.50, repro,
2001-02-28,-1.20, 1.80, -11.65, 2.76, 1.87, 8.52, repro,
2001-03-01,-2.06, 1.08, -3.57, 2.93, 2.03, 8.95, repro,
2001-03-02,1.82, 1.54, -8.63, 3.07, 2.17, 9.56, repro,
2001-03-03,-1.08, 0.23, -12.92, 2.74, 1.90, 8.57, repro,
2001-03-04,-1.39, 2.87, -13.36, 2.77, 1.82, 8.16, repro,
2001-03-05,-0.39, 2.32, -20.01, 2.88, 1.99, 8.91, repro,
2001-03-06,0.54, 1.32, -19.26, 2.64, 1.81, 8.12, repro,
2001-03-07,-0.03, 1.28, -15.95, 2.63, 1.76, 7.97, repro,
2001-03-08,0.97, -0.65, -11.35, 2.67, 1.82, 8.16, repro,
2001-03-09,0.51, 1.34, -7.08, 2.79, 1.86, 8.33, repro,
2001-03-10,-0.88, 0.78, -18.48, 2.76, 1.90, 8.46, repro,
2001-03-11,-0.98, 1.00, -9.62, 2.80, 1.90, 8.51, repro,
2001-03-12,-1.67, 0.44, -7.61, 2.80, 1.90, 8.53, repro,
2001-03-13,-0.11, -1.04, -2.83, 2.75, 1.87, 8.45, repro,
2001-03-14,-1.05, 1.42, -5.81, 2.64, 1.82, 8.23, repro,
2001-03-15,-2.61, 2.95, -17.36, 2.64, 1.80, 8.15, repro,
2001-03-16,-2.00, 1.32, -5.39, 2.67, 1.84, 8.35, repro,
2001-03-17,-1.67, 1.72, -19.86, 2.69, 1.86, 8.39, repro,
2001-03-18,0.29, 2.20, -20.30, 2.66, 1.79, 8.15, repro,
2001-03-19,0.08, 1.59, -8.93, 2.62, 1.80, 8.11, repro,
2001-03-20,-0.95, 3.24, -5.41, 3.43, 2.20, 9.77, repro,
2001-03-21,-2.00, 1.02, -21.49, 2.52, 1.74, 7.95, repro,
2001-03-23,-1.89, 4.03, -6.09, 2.41, 1.67, 7.51, repro,
2001-03-24,-0.72, 2.30, -12.35, 2.37, 1.66, 7.45, repro,
2001-03-25,-1.78, 1.94, -3.72, 2.41, 1.69, 7.58, repro,
2001-03-26,1.26, 5.72, -10.05, 2.48, 1.73, 7.60, repro,
2001-03-27,-1.72, 2.02, -7.26, 2.49, 1.73, 7.70, repro,
2001-03-28,-3.33, 0.37, -1.75, 2.51, 1.72, 7.80, repro,
2001-03-29,0.66, 2.28, -22.25, 2.48, 1.72, 7.69, repro,
2001-03-30,-1.29, 1.81, -16.53, 2.37, 1.67, 7.49, repro,
2001-03-31,-1.19, 1.04, -6.07, 2.79, 2.00, 8.75, repro,
2001-04-01,-0.94, 2.57, -9.72, 2.39, 1.70, 7.50, repro,
2001-04-02,-0.60, 2.58, -8.75, 2.38, 1.66, 7.43, repro,
2001-04-03,-1.37, 1.77, -13.89, 2.42, 1.71, 7.59, repro,
2001-04-04,1.07, 1.95, -9.88, 2.38, 1.67, 7.49, repro,
2001-04-05,-0.24, 0.98, -2.16, 2.42, 1.73, 7.79, repro,
2001-04-06,-0.60, 1.98, 0.65, 2.40, 1.68, 7.63, repro,
2001-04-07,0.64, 1.32, -3.17, 2.40, 1.68, 7.64, repro,
2001-04-08,-0.52, 2.32, -9.94, 2.41, 1.68, 7.67, repro,
2001-04-09,0.77, 2.11, -8.21, 2.37, 1.66, 7.56, repro,
2001-04-10,0.22, 1.88, -10.82, 2.36, 1.67, 7.57, repro,
2001-04-11,-0.76, 2.92, 0.84, 2.52, 1.77, 7.98, repro,
2001-04-12,0.11, 2.38, -9.18, 2.45, 1.72, 7.88, repro,
2001-04-13,-0.48, 2.61, -6.26, 2.39, 1.69, 7.63, repro,
2001-04-14,-0.86, 1.09, -7.68, 2.40, 1.70, 7.76, repro,
2001-04-15,-0.36, 2.67, -8.42, 2.45, 1.77, 7.92, repro,
2001-04-16,0.07, 1.68, -5.69, 2.42, 1.72, 7.87, repro,
2001-04-17,-3.52, 1.60, -6.57, 2.44, 1.70, 7.65, repro,
2001-04-18,-2.31, 2.73, -10.51, 2.53, 1.77, 7.92, repro,
2001-04-19,-2.32, 1.54, -8.44, 2.36, 1.64, 7.39, repro,
2001-04-20,0.52, 1.16, -11.73, 2.35, 1.62, 7.40, repro,
2001-04-21,2.62, 0.97, -14.01, 2.35, 1.63, 7.41, repro,
2001-04-22,-1.57, 1.03, -15.97, 2.47, 1.73, 7.89, repro,
2001-04-23,1.50, 1.72, -8.56, 2.42, 1.66, 7.56, repro,
2001-04-24,-1.37, 2.75, -3.77, 2.45, 1.70, 7.69, repro,
2001-04-25,-1.54, 3.38, 6.67, 2.44, 1.74, 7.79, repro,
2001-04-26,0.53, 1.80, -8.54, 2.34, 1.64, 7.36, repro,
2001-04-27,-1.68, 2.17, -4.93, 2.35, 1.64, 7.41, repro,
2001-04-28,-0.88, 1.40, -2.16, 2.35, 1.64, 7.40, repro,
2001-04-29,-0.53, 3.45, 6.66, 2.34, 1.64, 7.41, repro,
2001-04-30,0.78, 3.26, -4.34, 2.42, 1.71, 7.77, repro,
2001-05-01,0.84, 1.99, -4.04, 2.36, 1.66, 7.47, repro,
2001-05-02,-0.88, 0.61, -11.04, 2.34, 1.62, 7.37, repro,
2001-05-03,-0.98, 2.87, -12.52, 2.32, 1.63, 7.32, repro,
2001-05-04,-2.25, 1.90, -0.49, 2.35, 1.64, 7.41, repro,
2001-05-05,-2.80, -0.36, 2.91, 2.34, 1.63, 7.37, repro,
2001-05-06,0.98, 1.34, -0.65, 2.35, 1.63, 7.39, repro,
2001-05-07,-0.38, -0.49, -17.91, 2.39, 1.68, 7.62, repro,
2001-05-08,0.20, 0.41, -1.58, 2.35, 1.67, 7.51, repro,
2001-05-09,0.62, 1.53, -5.83, 2.35, 1.65, 7.49, repro,
2001-05-10,-1.66, 1.13, -5.23, 2.32, 1.63, 7.34, repro,
2001-05-11,-0.18, 1.64, -6.53, 2.39, 1.65, 7.48, repro,
2001-05-12,0.65, 0.70, -7.57, 2.39, 1.69, 7.64, repro,
2001-05-13,-1.00, 0.85, -11.07, 2.36, 1.68, 7.60, repro,
2001-05-14,-0.09, 1.86, -1.88, 2.40, 1.69, 7.65, repro,
2001-05-15,-3.23, 1.28, 2.46, 2.38, 1.66, 7.51, repro,
2001-05-16,1.12, 2.25, -6.53, 2.36, 1.66, 7.52, repro,
2001-05-17,1.20, 1.91, -5.53, 2.41, 1.71, 7.68, repro,
2001-05-18,1.11, 1.64, -13.58, 2.31, 1.63, 7.33, repro,
2001-05-19,-1.63, 3.01, -8.08, 2.32, 1.65, 7.44, repro,
2001-05-20,0.14, 1.45, -7.33, 2.35, 1.65, 7.52, repro,
2001-05-21,-0.77, 0.57, -2.64, 2.33, 1.63, 7.31, repro,
2001-05-22,-1.82, 0.78, 1.31, 2.33, 1.68, 7.54, repro,
2001-05-25,-0.45, 2.10, -6.66, 2.35, 1.65, 7.45, repro,
2001-05-26,0.13, -0.60, -3.59, 2.37, 1.65, 7.46, repro,
2001-05-27,-1.81, 0.98, 10.29, 2.33, 1.63, 7.36, repro,
2001-05-28,0.65, 1.84, -0.96, 2.37, 1.68, 7.54, repro,
2001-05-29,-1.05, 3.42, -4.48, 2.34, 1.65, 7.47, repro,
2001-05-30,0.07, 2.12, -7.48, 2.33, 1.64, 7.39, repro,
2001-05-31,1.46, 0.12, -6.62, 2.38, 1.65, 7.43, repro,
2001-06-01,-0.77, 1.02, 1.94, 2.36, 1.65, 7.41, repro,
2001-06-02,-0.92, 3.02, -0.77, 2.36, 1.67, 7.40, repro,
2001-06-03,0.29, 2.23, 2.64, 2.32, 1.63, 7.32, repro,
2001-06-04,-0.14, 2.57, -1.53, 2.33, 1.67, 7.49, repro,
2001-06-05,0.01, 2.11, 4.09, 2.34, 1.63, 7.33, repro,
2001-06-06,0.14, 0.98, -9.25, 2.33, 1.64, 7.40, repro,
2001-06-07,-0.72, 1.96, -4.59, 2.37, 1.66, 7.42, repro,
2001-06-09,-3.41, 1.07, 13.22, 2.41, 1.68, 7.70, repro,
2001-06-10,-1.40, 1.11, -1.93, 2.35, 1.65, 7.47, repro,
2001-06-11,-0.14, 1.17, 0.45, 2.32, 1.61, 7.26, repro,
2001-06-12,-0.03, 0.31, -3.36, 2.39, 1.66, 7.48, repro,
2001-06-13,-1.29, 0.70, -0.93, 2.37, 1.66, 7.46, repro,
2001-06-14,1.61, 2.32, -8.96, 2.34, 1.64, 7.36, repro,
2001-06-15,1.24, 2.32, -6.91, 2.35, 1.66, 7.39, repro,
2001-06-16,0.17, 1.49, -9.24, 2.34, 1.64, 7.41, repro,
2001-06-17,1.27, 2.77, -6.16, 2.42, 1.65, 7.38, repro,
2001-06-18,1.37, 2.13, -9.83, 2.34, 1.63, 7.35, repro,
2001-06-19,-1.85, 2.90, -12.63, 2.40, 1.68, 7.53, repro,
2001-06-20,0.44, 2.07, -7.88, 2.36, 1.69, 7.63, repro,
2001-06-21,-1.42, 3.35, 7.12, 2.34, 1.67, 7.51, repro,
2001-06-22,-0.02, 2.04, -7.58, 2.34, 1.65, 7.38, repro,
2001-06-23,1.31, 2.45, -11.14, 2.35, 1.67, 7.44, repro,
2001-06-24,-0.52, 2.09, -5.18, 2.36, 1.66, 7.45, repro,
2001-06-25,-1.19, 1.59, -5.78, 2.30, 1.63, 7.27, repro,
2001-06-26,-1.13, 0.69, 0.58, 2.33, 1.65, 7.36, repro,
2001-06-27,-3.46, 2.16, -9.47, 2.34, 1.67, 7.36, repro,
2001-06-28,-1.79, 3.02, -8.13, 2.32, 1.64, 7.30, repro,
2001-06-29,2.27, 2.65, -17.91, 2.33, 1.65, 7.35, repro,
2001-06-30,0.73, 2.77, -9.06, 2.32, 1.63, 7.30, repro,
2001-07-01,-4.45, 2.39, -0.76, 2.32, 1.63, 7.27, repro,
2001-07-02,0.09, 2.24, -6.23, 2.32, 1.63, 7.25, repro,
2001-07-03,0.39, 2.64, -11.46, 2.34, 1.65, 7.32, repro,
2001-07-04,1.74, 2.13, -12.29, 2.31, 1.64, 7.31, repro,
2001-07-05,-0.89, 0.76, -4.92, 2.32, 1.64, 7.32, repro,
2001-07-06,-3.39, 1.55, 5.24, 2.35, 1.64, 7.34, repro,
2001-07-07,-2.46, 1.53, -6.52, 2.35, 1.65, 7.37, repro,
2001-07-08,-2.11, 1.21, -5.90, 2.35, 1.65, 7.34, repro,
2001-07-09,-0.32, 0.90, -8.93, 2.33, 1.63, 7.32, repro,
2001-07-10,0.48, 1.41, -9.69, 2.54, 1.77, 7.91, repro,
2001-07-11,-0.44, 1.17, -12.28, 2.35, 1.64, 7.36, repro,
2001-07-12,-2.90, 1.44, -8.53, 2.42, 1.65, 7.50, repro,
2001-07-13,-0.84, 1.07, -11.17, 2.45, 1.70, 7.64, repro,
2001-07-14,-2.49, 3.32, -1.43, 2.34, 1.66, 7.36, repro,
2001-07-15,-1.80, 2.39, -3.08, 2.34, 1.64, 7.33, repro,
2001-07-16,-1.76, 0.94, -11.90, 2.33, 1.63, 7.29, repro,
2001-07-17,-2.79, 2.29, -5.22, 2.34, 1.62, 7.26, repro,
2001-07-18,-1.51, 1.90, -8.90, 2.35, 1.65, 7.33, repro,
2001-07-19,-0.32, 3.50, -9.85, 2.33, 1.64, 7.30, repro,
2001-07-20,-0.93, 1.47, -12.16, 2.44, 1.70, 7.50, repro,
2001-07-21,-0.45, 1.78, -3.57, 2.33, 1.62, 7.26, repro,
2001-07-22,-0.19, 2.06, -17.33, 2.34, 1.62, 7.24, repro,
2001-07-23,-1.72, 2.60, -10.02, 2.35, 1.66, 7.38, repro,
2001-07-24,-1.81, 2.98, -10.21, 2.36, 1.66, 7.40, repro,
2001-07-25,-2.01, 2.07, -5.64, 2.35, 1.66, 7.40, repro,
2001-07-26,-1.57, 1.82, -7.65, 2.45, 1.69, 7.51, repro,
2001-07-27,-1.98, 3.04, -4.33, 2.43, 1.71, 7.54, repro,
2001-07-28,-1.26, 2.09, -7.25, 2.40, 1.67, 7.50, repro,
2001-07-29,0.03, 1.66, -11.80, 2.45, 1.72, 7.66, repro,
2001-07-30,-0.79, 1.21, -3.37, 2.57, 1.76, 7.90, repro,
2001-07-31,-2.78, 2.24, -9.65, 2.46, 1.75, 7.74, repro,
2001-08-01,-2.88, 2.56, -5.04, 2.42, 1.69, 7.57, repro,
2001-08-02,-1.85, 3.84, -10.23, 2.41, 1.68, 7.57, repro,
2001-08-03,-1.75, 2.59, -2.98, 2.42, 1.69, 7.56, repro,
2001-08-04,-4.17, 2.15, 4.92, 2.51, 1.76, 7.81, repro,
2001-08-05,-2.70, 2.52, -4.47, 2.47, 1.76, 7.74, repro,
2001-08-06,-1.51, 1.12, -11.34, 2.42, 1.72, 7.62, repro,
2001-08-07,-1.55, 2.40, -7.08, 2.43, 1.70, 7.53, repro,
2001-08-08,-4.15, 2.24, -14.47, 2.50, 1.76, 7.90, repro,
2001-08-09,-0.98, 2.51, -9.27, 2.58, 1.76, 8.02, repro,
2001-08-10,-2.84, 1.85, -3.44, 2.51, 1.76, 7.79, repro,
2001-08-11,-1.02, 1.71, -3.73, 2.44, 1.68, 7.51, repro,
2001-08-12,-1.15, 1.97, -13.58, 2.43, 1.66, 7.46, repro,
2001-08-13,-3.60, 2.66, -3.55, 2.47, 1.68, 7.49, repro,
2001-08-14,-1.93, 2.55, -8.89, 2.44, 1.72, 7.61, repro,
2001-08-15,-2.24, 2.86, -8.96, 2.43, 1.72, 7.58, repro,